Location: Newark
(34.1333°N, 7.9667°W)
Time: 10:45:41
(UTC+00:00)

COSMOS 2251 DEB - Pass Details

Date: 01 March 2024
Orbit: 726 x 941 km, 73.7° (Epoch: 12 April)

Event Time Altitude Azimuth Distance (km) Brightness Sun altitude
Exits shadow 06:02:06 17° 262° (W) 2,160 ? -12.8°
Maximum altitude 06:04:51 23° 297° (WNW) 1,853 ? -12.3°
Drops below altitude 10° 06:09:24 10° 347° (NNW) 2,553 ? -11.3°
Sets 06:12:23 0° 3° (N) 3,458 ? -10.7°
